Frederick, OK

9:32 AM CST on February 07, 2016 (GMT -0600)
Frederick Municipal

Weather History for KFDR - March, 2014

Change the Weather History Date:

Wednesday, March 19, 2014

  Actual Average (KLTS) Record (KLTS)
Temperature  
Mean Temperature 48 °F -  
Max Temperature 63 °F 63 °F 87 °F (2004)
Min Temperature 34 °F 40 °F 35 °F (1998)
Degree Days  
Heating Degree Days 17    
Moisture  
Dew Point 27 °F    
Average Humidity 46    
Maximum Humidity 79    
Minimum Humidity 21    
Precipitation  
Precipitation 0.00 in - - ()
Sea Level Pressure  
Sea Level Pressure 30.14 in    
Wind  
Wind Speed 14 mph (North)    
Max Wind Speed 25 mph    
Max Gust Speed 36 mph    
Visibility 10 miles    
Events      
Averages and records for this station are not official NWS values.
T = Trace of Precipitation, MM = Missing Value Source: NWS Daily Summary

Daily Weather History Graph

Daily Weather History Graph

Search for Another Location

Airport or City:

Trip Planner

Search our weather history database for the weather conditions in past years. The results will help you decide how hot, cold, wet, or windy it might be!

Date:

Astronomy

Mar. 19, 2014 Rise Set
Actual Time 7:40 AM CDT 7:46 PM CDT
Civil Twilight 7:15 AM CDT 8:11 PM CDT
Nautical Twilight 6:46 AM CDT 8:41 PM CDT
Astronomical Twilight 6:17 AM CDT 9:10 PM CDT
Moon 10:57 PM CDT (3/19) 9:15 AM CDT (3/19)
Length of Visible Light 12h 56m
Length of Day
12h 05m
Waning Gibbous, 91% of the Moon is Illuminated
Mar 19
Waning Gibbous
Mar 23
Last Quarter
Mar 30
New
Apr 7
First Quarter
Apr 15
Full

Hourly Weather History & Observations

Time (CDT) Temp. Windchill Dew Point Humidity Pressure Visibility Wind Dir Wind Speed Gust Speed Precip Events Conditions
12:53 AM 45.0 °F 36.0 °F 28.9 °F 53% 29.94 in 10.0 mi North 25.3 mph 35.7 mph N/A   Clear
1:53 AM 44.1 °F 35.9 °F 28.0 °F 53% 29.96 in 10.0 mi North 19.6 mph 29.9 mph N/A   Clear
2:53 AM 43.0 °F 37.7 °F 28.0 °F 56% 30.03 in 10.0 mi NNW 9.2 mph - N/A   Clear
3:53 AM 42.1 °F 36.6 °F 28.0 °F 58% 30.04 in 10.0 mi NNW 9.2 mph - N/A   Clear
4:53 AM 41.0 °F 35.2 °F 28.9 °F 62% 30.05 in 10.0 mi NW 9.2 mph - N/A   Clear
5:53 AM 37.9 °F 30.9 °F 28.0 °F 68% 30.08 in 10.0 mi WNW 10.4 mph - N/A   Clear
6:53 AM 34.0 °F 28.0 °F 28.0 °F 79% 30.14 in 10.0 mi WNW 6.9 mph - N/A   Clear
7:53 AM 35.1 °F 27.9 °F 28.0 °F 76% 30.17 in 10.0 mi WNW 9.2 mph - N/A   Clear
8:53 AM 39.9 °F 34.5 °F 30.0 °F 68% 30.21 in 10.0 mi WNW 8.1 mph - N/A   Clear
9:53 AM 45.0 °F 37.9 °F 30.9 °F 58% 30.23 in 10.0 mi North 16.1 mph - N/A   Clear
10:53 AM 48.9 °F - 30.0 °F 48% 30.25 in 10.0 mi North 15.0 mph - N/A   Clear
11:53 AM 53.1 °F - 28.9 °F 40% 30.24 in 10.0 mi North 18.4 mph 25.3 mph N/A   Clear
12:53 PM 55.9 °F - 27.0 °F 33% 30.22 in 10.0 mi North 16.1 mph 25.3 mph N/A   Clear
1:53 PM 57.9 °F - 28.0 °F 32% 30.19 in 10.0 mi NNE 16.1 mph 21.9 mph N/A   Clear
2:53 PM 60.1 °F - 25.0 °F 26% 30.17 in 10.0 mi North 11.5 mph 18.4 mph N/A   Clear
3:53 PM 62.1 °F - 24.1 °F 23% 30.15 in 10.0 mi North 11.5 mph 18.4 mph N/A   Clear
4:53 PM 62.1 °F - 23.0 °F 22% 30.14 in 10.0 mi North 9.2 mph - N/A   Clear
5:53 PM 62.1 °F - 21.9 °F 21% 30.14 in 10.0 mi NNW 10.4 mph - N/A   Clear
6:53 PM 60.1 °F - 24.1 °F 25% 30.15 in 10.0 mi North 8.1 mph - N/A   Clear
7:53 PM 53.1 °F - 28.9 °F 40% 30.17 in 10.0 mi North 6.9 mph - N/A   Clear
8:53 PM 54.0 °F - 24.1 °F 31% 30.17 in 10.0 mi NNE 4.6 mph - N/A   Clear
9:53 PM 51.1 °F - 24.1 °F 35% 30.18 in 10.0 mi East 4.6 mph - N/A   Clear
10:53 PM 45.0 °F 41.2 °F 27.0 °F 49% 30.19 in 10.0 mi SE 6.9 mph - N/A   Clear
11:53 PM 43.0 °F 37.2 °F 28.0 °F 56% 30.19 in 10.0 mi SSE 10.4 mph - N/A   Clear